KB5DPX Weather Reports


Display with metric or nautical units.
time (UTC)temp
F
wind
direction
speed
MPH
gust
MPH
rain 1hr
in
rain 24hr
in
rain mn
in
humidity
%
barometer
mb
20260905234321 71 0.0 0.0 0.00 0.00 0.00 71 1018.6
20260905233816 71 0.0 0.0 0.00 0.00 0.00 70 1018.6
20260905233337 71 0.0 0.0 0.00 0.00 0.00 67 1018.5
20260905232838 72 0.0 0.0 0.00 0.00 0.00 65 1018.6
20260905232341 72 0.0 0.0 0.00 0.00 0.00 65 1018.5
20260905231828 72 0.0 0.0 0.00 0.00 0.00 63 1018.6
20260905231319 72 0.0 0.0 0.00 0.00 0.00 62 1018.6
20260905230832 73 0.0 0.0 0.00 0.00 0.00 61 1018.6
20260905230319 73 0.0 0.0 0.00 0.00 0.00 62 1018.6
20260905225832 73 0.0 0.0 0.00 0.00 0.00 61 1018.6
20260905225317 73 0.0 0.0 0.00 0.00 0.00 61 1018.4
20260905224835 73 0.0 0.0 0.00 0.00 0.00 62 1018.4
20260905224316 73 0.0 0.0 0.00 0.00 0.00 62 1018.4
20260905223829 74 0.0 0.0 0.00 0.00 0.00 61 1018.4
20260905223334 74 0.0 0.0 0.00 0.00 0.00 61 1018.4
20260905222838 74 0.0 0.0 0.00 0.00 0.00 60 1018.3
20260905222323 75 0.0 0.0 0.00 0.00 0.00 59 1018.2
20260905221837 75 0.0 0.0 0.00 0.00 0.00 59 1018.3
20260905221325 75 0.0 0.0 0.00 0.00 0.00 58 1018.2
20260905220822 75 0.0 0.0 0.00 0.00 0.00 58 1018.1
20260905220332 75 0.0 0.0 0.00 0.00 0.00 59 1018.1
20260905215839 75 0.0 0.0 0.00 0.00 0.00 59 1018.1
20260905215345 75 0.0 0.0 0.00 0.00 0.00 58 1018.1
20260905214829 76 0.0 0.0 0.00 0.00 0.00 58 1018.1
20260905214320 76 0.0 0.0 0.00 0.00 0.00 58 1018.1
20260905213836 76 0.0 0.0 0.00 0.00 0.00 58 1018.1
20260905213324 75 0.0 0.0 0.00 0.00 0.00 58 1018.0
20260905212838 76 0.0 0.0 0.00 0.00 0.00 57 1018.0
20260905212339 76 0.0 0.0 0.00 0.00 0.00 57 1017.9
20260905211824 76 0.0 0.0 0.00 0.00 0.00 56 1017.9
20260905211338 76 0.0 0.0 0.00 0.00 0.00 56 1017.9
20260905210844 76 0.0 0.0 0.00 0.00 0.00 57 1018.0
20260905210328 76 0.0 0.0 0.00 0.00 0.00 56 1018.0
20260905205840 76 0.0 0.0 0.00 0.00 0.00 56 1018.0
20260905205343 75 0.0 0.0 0.00 0.00 0.00 58 1018.1
20260905204828 75 0.0 0.0 0.00 0.00 0.00 59 1018.1
20260905204333 76 0.0 0.0 0.00 0.00 0.00 59 1018.2
20260905203838 76 0.0 0.0 0.00 0.00 0.00 59 1018.3
20260905203344 76 0.0 0.0 0.00 0.00 0.00 58 1018.2
20260905202322 76 0.0 0.0 0.00 0.00 0.00 59 1018.1
20260905201839 76 0.0 0.0 0.00 0.00 0.00 62 1018.2
20260905201344 76 0.0 0.0 0.00 0.00 0.00 61 1018.1
20260905200828 76 0.0 0.0 0.00 0.00 0.00 59 1018.1
20260905200334 76 0.0 0.0 0.00 0.00 0.00 59 1018.1
20260905195838 76 0.0 0.0 0.00 0.00 0.00 62 1018.0
20260905194826 76 0.0 0.0 0.00 0.00 0.00 61 1018.0
20260905194342 76 0.0 0.0 0.00 0.00 0.00 62 1018.1
20260905193828 76 0.0 0.0 0.00 0.00 0.00 61 1018.1
20260905193337 76 0.0 0.0 0.00 0.00 0.00 63 1018.2
20260905192843 76 0.0 0.0 0.00 0.00 0.00 63 1018.3
20260905192330 77 0.0 0.0 0.00 0.00 0.00 61 1018.3
20260905191845 76 0.0 0.0 0.00 0.00 0.00 63 1018.4
20260905191329 76 0.0 0.0 0.00 0.00 0.00 62 1018.4
20260905190842 76 0.0 0.0 0.00 0.00 0.00 62 1018.5
20260905185837 76 0.0 0.0 0.00 0.00 0.00 62 1018.6
20260905185343 76 0.0 0.0 0.00 0.00 0.00 63 1018.6
20260905184827 76 0.0 0.0 0.00 0.00 0.00 63 1018.5
20260905184338 76 0.0 0.0 0.00 0.00 0.00 65 1018.5
20260905183823 75 0.0 0.0 0.00 0.00 0.00 62 1018.5
20260905183340 75 0.0 0.0 0.00 0.00 0.00 63 1018.5
20260905182824 76 0.0 0.0 0.00 0.00 0.00 62 1018.6
20260905182336 76 0.0 0.0 0.00 0.00 0.00 62 1018.6
20260905181836 76 0.0 0.0 0.00 0.00 0.00 64 1018.8
20260905181324 75 0.0 0.0 0.00 0.00 0.00 63 1018.9
20260905180835 76 0.0 0.0 0.00 0.00 0.00 63 1018.8
20260905180342 76 0.0 0.0 0.00 0.00 0.00 65 1018.6
20260905175828 75 0.0 0.0 0.00 0.00 0.00 65 1018.7
20260905175321 75 0.0 0.0 0.00 0.00 0.00 66 1018.8
20260905174834 75 0.0 0.0 0.00 0.00 0.00 65 1018.7
20260905174319 75 0.0 0.0 0.00 0.00 0.00 66 1018.8
20260905173339 75 0.0 0.0 0.00 0.00 0.00 67 1018.7
20260905172841 75 0.0 0.0 0.00 0.00 0.00 69 1018.8
20260905172328 75 0.0 0.0 0.00 0.00 0.00 67 1018.7
20260905171844 75 0.0 0.0 0.00 0.00 0.00 66 1018.8
20260905171331 75 0.0 0.0 0.00 0.00 0.00 68 1018.8
20260905170819 75 0.0 0.0 0.00 0.00 0.00 69 1018.9
20260905170329 74 0.0 0.0 0.00 0.00 0.00 66 1018.8
20260905165834 75 0.0 0.0 0.00 0.00 0.00 70 1018.8
20260905165341 74 0.0 0.0 0.00 0.00 0.00 70 1018.8
20260905164825 74 0.0 0.0 0.00 0.00 0.00 67 1018.8
20260905164338 75 0.0 0.0 0.00 0.00 0.00 70 1018.9
20260905163843 74 0.0 0.0 0.00 0.00 0.00 70 1018.9
20260905163330 74 0.0 0.0 0.00 0.00 0.00 69 1019.0
20260905162822 74 0.0 0.0 0.00 0.00 0.00 70 1019.1
20260905162331 74 0.0 0.0 0.00 0.00 0.00 71 1019.1
20260905161836 74 0.0 0.0 0.00 0.00 0.00 72 1019.0
20260905161323 74 0.0 0.0 0.00 0.00 0.00 72 1019.0
20260905160838 74 0.0 0.0 0.00 0.00 0.00 72 1019.0
20260905160324 74 0.0 0.0 0.00 0.00 0.00 73 1019.1
20260905155817 74 0.0 0.0 0.00 0.00 0.00 74 1019.2
20260905155341 73 0.0 0.0 0.00 0.00 0.00 74 1019.2
20260905154827 73 0.0 0.0 0.00 0.00 0.00 73 1019.0
20260905154343 73 0.0 0.0 0.00 0.00 0.00 72 1019.0
20260905153822 73 0.0 0.0 0.00 0.00 0.00 72 1019.0
20260905153333 73 0.0 0.0 0.00 0.00 0.00 72 1019.0
20260905152835 73 0.0 0.0 0.00 0.00 0.00 74 1019.0
20260905152340 73 0.0 0.0 0.00 0.00 0.00 74 1019.0
20260905151823 72 0.0 0.0 0.00 0.00 0.00 75 1018.9
20260905151338 72 0.0 0.0 0.00 0.00 0.00 75 1018.8
20260905150841 72 0.0 0.0 0.00 0.00 0.00 75 1018.6
20260905150335 72 0.0 0.0 0.00 0.00 0.00 76 1018.6
20260905145835 72 0.0 0.0 0.00 0.00 0.00 78 1018.6
20260905145319 71 0.0 0.0 0.00 0.00 0.00 79 1018.6
20260905144832 71 0.0 0.0 0.00 0.00 0.00 81 1018.7
20260905144324 70 0.0 0.0 0.00 0.00 0.00 83 1018.6
20260905143836 70 0.0 0.0 0.00 0.00 0.00 82 1018.5
20260905143321 70 0.0 0.0 0.00 0.00 0.00 82 1018.5
20260905142817 70 0.0 0.0 0.00 0.00 0.00 84 1018.4
20260905142334 69 0.0 0.0 0.00 0.00 0.00 84 1018.3
20260905141833 69 0.0 0.0 0.00 0.00 0.00 85 1018.3
20260905140823 68 0.0 0.0 0.00 0.00 0.00 86 1018.3
20260905140340 68 0.0 0.0 0.00 0.00 0.00 87 1018.2
20260905135826 68 0.0 0.0 0.00 0.00 0.00 87 1018.1
20260905135341 67 0.0 0.0 0.00 0.00 0.00 87 1018.1
20260905134843 67 0.0 0.0 0.00 0.00 0.00 87 1018.2
20260905134323 67 0.0 0.0 0.00 0.00 0.00 87 1018.2
20260905133840 67 0.0 0.0 0.00 0.00 0.00 87 1018.2
20260905133342 67 0.0 0.0 0.00 0.00 0.00 86 1018.3
20260905132844 66 0.0 0.0 0.00 0.00 0.00 84 1018.3
20260905131837 65 0.0 0.0 0.00 0.00 0.00 84 1018.2
20260905131335 65 0.0 0.0 0.00 0.00 0.00 83 1018.3
20260905130820 65 0.0 0.0 0.00 0.00 0.00 81 1018.3
20260905130337 65 0.0 0.0 0.00 0.00 0.00 80 1018.3
20260905125844 64 0.0 0.0 0.00 0.00 0.00 79 1018.3
20260905125331 64 0.0 0.0 0.00 0.00 0.00 76 1018.3
20260905124844 64 0.0 0.0 0.00 0.00 0.00 76 1018.2
20260905124323 64 0.0 0.0 0.00 0.00 0.00 74 1018.2
20260905123837 63 0.0 0.0 0.00 0.00 0.00 73 1018.1
20260905123326 63 0.0 0.0 0.00 0.00 0.00 71 1018.1
20260905122834 63 0.0 0.0 0.00 0.00 0.00 70 1018.1
20260905122319 63 0.0 0.0 0.00 0.00 0.00 68 1018.1
20260905121833 62 0.0 0.0 0.00 0.00 0.00 67 1018.1
20260905121324 62 0.0 0.0 0.00 0.00 0.00 64 1018.1
20260905120838 62 0.0 0.0 0.00 0.00 0.00 64 1018.0
20260905120321 61 0.0 0.0 0.00 0.00 0.00 64 1018.0
20260905115320 61 0.0 0.0 0.00 0.02 0.00 65 1018.0
20260905114833 60 0.0 0.0 0.00 0.02 0.00 64 1017.9
20260905114319 60 0.0 0.0 0.00 0.02 0.00 64 1017.9
20260905113836 59 0.0 0.0 0.00 0.02 0.00 66 1017.8
20260905113322 59 0.0 0.0 0.00 0.02 0.00 66 1017.7
20260905112835 59 0.0 0.0 0.00 0.02 0.00 66 1017.7
20260905111842 59 0.0 0.0 0.00 0.02 0.00 67 1017.7
20260905111345 59 0.0 0.0 0.00 0.02 0.00 67 1017.7
20260905110830 59 0.0 0.0 0.00 0.02 0.00 67 1017.6
20260905110343 59 0.0 0.0 0.00 0.02 0.00 66 1017.5
20260905105827 59 0.0 0.0 0.00 0.29 0.00 66 1017.5
20260905105341 60 0.0 0.0 0.00 0.29 0.00 66 1017.5
20260905104835 60 0.0 0.0 0.00 0.29 0.00 66 1017.4
20260905104339 60 0.0 0.0 0.00 0.29 0.00 66 1017.5
20260905103839 60 0.0 0.0 0.00 0.29 0.00 65 1017.6
20260905103325 60 0.0 0.0 0.00 0.29 0.00 65 1017.5
20260905102839 60 0.0 0.0 0.00 0.29 0.00 65 1017.4
20260905102345 60 0.0 0.0 0.00 0.29 0.00 65 1017.4
20260905101830 60 0.0 0.0 0.00 0.29 0.00 65 1017.4
20260905101324 60 0.0 0.0 0.00 0.29 0.00 65 1017.4
20260905100818 60 0.0 0.0 0.00 0.29 0.00 65 1017.3
20260905100329 60 0.0 0.0 0.00 0.29 0.00 66 1017.2
20260905095840 60 0.0 0.0 0.00 0.29 0.00 65 1017.2
20260905095329 60 0.0 0.0 0.00 0.29 0.00 64 1017.1
20260905094833 60 0.0 0.0 0.00 0.29 0.00 64 1017.1
20260905094340 60 0.0 0.0 0.00 0.29 0.00 66 1017.0
20260905093825 60 0.0 0.0 0.00 0.29 0.00 66 1017.0
20260905093336 60 0.0 0.0 0.00 0.29 0.00 65 1017.2
20260905092839 60 0.0 0.0 0.00 0.29 0.00 66 1017.1
20260905092332 60 0.0 0.0 0.00 0.29 0.00 66 1017.1
20260905091835 60 0.0 0.0 0.00 0.29 0.00 66 1017.2
20260905091340 60 0.0 0.0 0.00 0.29 0.00 67 1017.1
20260905090339 61 0.0 0.0 0.00 0.29 0.00 67 1017.1
20260905085823 61 0.0 0.0 0.00 0.29 0.00 67 1017.1
20260905085338 61 0.0 0.0 0.00 0.29 0.00 67 1017.1
20260905084824 61 0.0 0.0 0.00 0.29 0.00 66 1017.1
20260905084336 61 0.0 0.0 0.00 0.29 0.00 66 1017.1
20260905083842 62 0.0 0.0 0.00 0.29 0.00 66 1017.1
20260905083328 62 0.0 0.0 0.00 0.29 0.00 66 1017.0
20260905082841 62 0.0 0.0 0.00 0.29 0.00 66 1017.0
20260905082322 62 0.0 0.0 0.00 0.29 0.00 65 1017.0
20260905081837 62 0.0 0.0 0.00 0.29 0.00 65 1017.1
20260905081321 62 0.0 0.0 0.00 0.29 0.00 65 1017.0
20260905080836 62 0.0 0.0 0.00 0.29 0.00 65 1017.0
20260905080322 62 0.0 0.0 0.00 0.29 0.00 65 1017.0
20260905075830 62 0.0 0.0 0.00 0.29 0.00 65 1017.1
20260905075334 62 0.0 0.0 0.00 0.29 0.00 65 1017.0
20260905074819 62 0.0 0.0 0.00 0.29 0.00 65 1017.1
20260905074332 63 0.0 0.0 0.00 0.29 0.00 65 1017.1
20260905073844 63 0.0 0.0 0.00 0.29 0.00 65 1017.1
20260905073325 63 0.0 0.0 0.00 0.29 0.00 65 1017.1
20260905072836 63 0.0 0.0 0.00 0.29 0.00 65 1017.0
20260905072321 63 0.0 0.0 0.00 0.29 0.00 65 1017.1
20260905071830 63 0.0 0.0 0.00 0.29 0.00 65 1017.0
20260905071335 63 0.0 0.0 0.00 0.29 0.00 65 1017.0
20260905070340 63 0.0 0.0 0.00 0.29 0.00 66 1016.9
20260905065822 63 0.0 0.0 0.00 0.29 0.00 66 1016.9
20260905065321 63 0.0 0.0 0.00 0.29 0.00 66 1016.9
20260905064837 63 0.0 0.0 0.00 0.29 0.00 65 1016.8
20260905064340 63 0.0 0.0 0.00 0.29 0.00 65 1016.8
20260905063824 64 0.0 0.0 0.00 0.29 0.00 65 1016.8
20260905063342 64 0.0 0.0 0.00 0.29 0.00 65 1016.9
20260905062828 64 0.0 0.0 0.00 0.29 0.00 65 1016.9
20260905062343 64 0.0 0.0 0.00 0.29 0.00 65 1016.9
20260905061339 64 0.0 0.0 0.00 0.29 0.00 65 1016.9
20260905060840 63 0.0 0.0 0.00 0.29 0.00 65 1017.0
20260905060345 63 0.0 0.0 0.00 0.29 0.00 65 1017.0
20260905055830 63 0.0 0.0 0.00 0.29 0.00 65 1017.0
20260905055335 63 0.0 0.0 0.00 0.29 0.00 65 1017.0
20260905054842 63 0.0 0.0 0.00 0.29 0.00 65 1016.9
20260905053833 63 0.0 0.0 0.00 0.29 0.00 66 1016.9
20260905053338 63 0.0 0.0 0.00 0.29 0.00 66 1016.9
20260905052822 63 0.0 0.0 0.00 0.29 0.00 67 1016.9
20260905052335 64 0.0 0.0 0.00 0.29 0.00 67 1016.9
20260905051839 64 0.0 0.0 0.00 0.29 0.00 66 1016.9
20260905051325 64 0.0 0.0 0.00 0.29 0.00 66 1016.9
20260905050839 64 0.0 0.0 0.00 0.29 0.00 66 1016.9
20260905050322 64 0.0 0.0 0.00 0.29 0.00 66 1016.8
20260905045832 64 0.0 0.0 0.00 0.29 0.00 66 1016.7
20260905045319 64 0.0 0.0 0.00 0.29 0.00 66 1016.7
20260905044833 64 0.0 0.0 0.00 0.29 0.00 66 1016.7
20260905044341 64 0.0 0.0 0.00 0.29 0.00 66 1016.7
20260905043827 64 0.0 0.0 0.00 0.29 0.00 66 1016.7
20260905043339 64 0.0 0.0 0.00 0.29 0.00 66 1016.7
20260905042823 64 0.0 0.0 0.00 0.29 0.00 66 1016.7
20260905042340 64 0.0 0.0 0.00 0.29 0.00 66 1016.7
20260905041825 64 0.0 0.0 0.00 0.29 0.00 66 1016.8
20260905041333 64 0.0 0.0 0.00 0.29 0.00 66 1016.7
20260905040839 64 0.0 0.0 0.00 0.29 0.00 66 1016.8
20260905040344 64 0.0 0.0 0.00 0.29 0.00 66 1016.8
20260905035826 64 0.0 0.0 0.00 0.29 0.29 66 1017.0
20260905035341 64 0.0 0.0 0.00 0.29 0.29 66 1016.9
20260905034828 64 0.0 0.0 0.00 0.29 0.29 66 1017.0
20260905034327 64 0.0 0.0 0.00 0.29 0.29 65 1016.9
20260905033844 64 0.0 0.0 0.00 0.29 0.29 65 1016.9
20260905033344 64 0.0 0.0 0.00 0.29 0.29 65 1017.0
20260905032826 63 0.0 0.0 0.00 0.29 0.29 66 1017.1
20260905032338 63 0.0 0.0 0.00 0.29 0.29 67 1017.0
20260905031843 63 0.0 0.0 0.00 0.29 0.29 68 1017.1
20260905031334 63 0.0 0.0 0.00 0.29 0.29 68 1017.0
20260905030819 63 0.0 0.0 0.00 0.29 0.29 69 1017.0
20260905030336 64 0.0 0.0 0.00 0.29 0.29 68 1016.9
20260905025820 64 0.0 0.0 0.00 0.29 0.29 70 1016.9
20260905025333 64 0.0 0.0 0.00 0.29 0.29 70 1016.8
20260905024837 64 0.0 0.0 0.00 0.29 0.29 70 1016.8
20260905024342 64 0.0 0.0 0.00 0.29 0.29 70 1016.8
20260905023828 64 0.0 0.0 0.00 0.29 0.29 70 1016.8
20260905023343 64 0.0 0.0 0.00 0.29 0.29 70 1016.8
20260905022827 65 0.0 0.0 0.00 0.29 0.29 70 1016.8
20260905022340 65 0.0 0.0 0.00 0.29 0.29 69 1016.9
20260905021834 65 0.0 0.0 0.00 0.29 0.29 69 1016.8
20260905021336 65 0.0 0.0 0.00 0.29 0.29 69 1016.7
20260905020843 65 0.0 0.0 0.00 0.29 0.29 69 1016.8
20260905020330 64 0.0 0.0 0.00 0.29 0.29 71 1016.9
20260905015842 64 0.0 0.0 0.00 0.29 0.29 72 1016.9
20260905015324 64 0.0 0.0 0.00 0.29 0.29 73 1016.9
20260905014836 65 0.0 0.0 0.00 0.29 0.29 73 1016.9
20260905014322 65 0.0 0.0 0.00 0.29 0.29 74 1016.8
20260905013838 65 0.0 0.0 0.00 0.29 0.29 74 1016.8
20260905013325 65 0.0 0.0 0.00 0.29 0.29 74 1016.9
20260905012834 65 0.0 0.0 0.00 0.29 0.29 73 1017.0
20260905012339 65 0.0 0.0 0.00 0.29 0.29 73 1017.1
20260905011826 65 0.0 0.0 0.00 0.29 0.29 73 1017.0
20260905011344 65 0.0 0.0 0.00 0.29 0.29 72 1016.9
20260905010829 65 0.0 0.0 0.00 0.29 0.29 72 1016.8
20260905010342 65 0.0 0.0 0.00 0.29 0.29 72 1016.8
20260905005826 65 0.0 0.0 0.00 0.29 0.29 73 1016.7
20260905005337 65 0.0 0.0 0.00 0.29 0.29 75 1016.7
20260905004836 65 0.0 0.0 0.00 0.29 0.29 76 1016.5
20260905004320 65 0.0 0.0 0.00 0.29 0.29 77 1016.4
20260905003832 66 0.0 0.0 0.00 0.29 0.29 77 1016.5
20260905003323 66 0.0 0.0 0.00 0.29 0.29 78 1016.5
20260905002840 66 0.0 0.0 0.00 0.29 0.29 80 1016.4
20260905002324 66 0.0 0.0 0.00 0.29 0.29 82 1016.3
20260905001836 67 0.0 0.0 0.00 0.29 0.29 83 1016.4
20260905001340 67 0.0 0.0 0.00 0.29 0.29 83 1016.4
20260905000820 67 0.0 0.0 0.00 0.29 0.29 84 1016.4
20260904235839 67 0.0 0.0 0.00 0.29 0.29 85 1016.4
20260904235326 68 0.0 0.0 0.00 0.29 0.29 85 1016.2
20260904234841 68 0.0 0.0 0.00 0.29 0.29 85 1016.2